Home   Weather   Ostrava   Past weeks

Flag for Czech Republic Past Weather in Ostrava, Czech Republic — Yesterday and Last 2 Weeks

Now
35 °F

Passing clouds.


Feels Like: 31 °F
Forecast: 35 / 54 °F
Wind: 5 mph from Southwest

Location: Ostrava / Mosnov

Current Time: Feb 27, 2017 at 12:55:43 am

Latest Report: Feb 27, 2017 at 12:00 am


Visibility: 16 mi

Pressure: 30.03 "Hg

Humidity: 66%

Dew Point: 25 °F

Location of OstravaLocation

Past Weather in Ostrava — Graph

°F

Ostrava Temperature Yesterday

Maximum temperature yesterday: 44 °F (at 2:00 pm)
Minimum temperature yesterday: 36 °F (at 12:00 am)
Average temperature yesterday: 40 °F

High & Low Weather Summary for the Past Weeks

 TemperatureHumidityPressure
High55 °F (Feb 23, 8:00 pm)100% (Feb 18, 10:00 pm)30.71 "Hg (Feb 18, 10:00 pm)
Low18 °F (Feb 14, 8:00 am)29% (Feb 15, 2:11 pm)29.32 "Hg (Feb 24, 12:00 am)
Average35 °F80%30.20 "Hg
* Reported Feb 11 11:00 pm — Feb 26 11:00 pm, Ostrava, Weather by CustomWeather, © 2017

Note: Actual official high and low records may vary slightly from our data, if they occured in-between our weather recording intervals... More about our weather records

Advertising

Ostrava Weather History for the Previous 24 Hours

Scroll right to see more
 ConditionsComfort  
Time TempWeatherWind HumidityBarometerVisibility
11:00 pm
Sun, Feb 26
37 °FPassing clouds.6 mph65%30.02 "Hg16 mi
10:00 pm36 °FPassing clouds.3 mph63%30.02 "Hg16 mi
9:00 pm41 °FPassing clouds.2 mph57%30.02 "Hg19 mi
8:00 pm42 °FPassing clouds.8 mph50%30.01 "Hg19 mi
7:00 pm43 °FPassing clouds.9 mph50%30.00 "Hg19 mi
6:00 pm42 °FPassing clouds.7 mph52%30.01 "Hg19 mi
5:00 pm43 °FOvercast.6 mph49%30.01 "Hg19 mi
4:00 pm42 °FOvercast.5 mph56%30.02 "Hg19 mi
3:00 pm43 °FOvercast.6 mph52%30.02 "Hg19 mi
2:00 pm44 °FOvercast.5 mph45%30.03 "Hg19 mi
1:00 pm42 °FOvercast.7 mph44%30.05 "Hg19 mi
12:00 pm42 °FOvercast.7 mph46%30.08 "Hg19 mi
11:00 am41 °FOvercast.7 mph48%30.09 "Hg19 mi
10:00 am41 °FOvercast.8 mph49%30.09 "Hg19 mi
9:00 am40 °FOvercast.10 mph51%30.09 "Hg19 mi
8:00 am39 °FOvercast.10 mph53%30.09 "Hg19 mi
7:00 am38 °FOvercast.7 mph56%30.09 "Hg19 mi
6:00 am38 °FOvercast.5 mph55%30.09 "Hg19 mi
5:00 am38 °FOvercast.7 mph54%30.11 "Hg19 mi
4:00 am39 °FOvercast.7 mph54%30.12 "Hg16 mi
3:00 am38 °FOvercast.8 mph55%30.13 "Hg16 mi
2:00 am38 °FOvercast.8 mph55%30.14 "Hg16 mi
1:00 am37 °FOvercast.7 mph57%30.17 "Hg16 mi
12:00 am36 °FOvercast.5 mph60%30.19 "Hg16 mi
Weather by CustomWeather, © 2017

See weather overviewHow to use our weather pages